Flag for Pakistan Weather past 2 weeks in Rawalpindi, Pakistan

Now
82 °F

Passing clouds.


Feels Like: 88 °F
Forecast: 78 / 94 °F
Wind: 5 mph from Northeast

Location: Islamabad Airport

Current Time: Aug 5, 2015 at 8:18:15 AM

Latest Report: Aug 5, 2015 at 5:00 AM


Visibility: 3 mi

Pressure: 29.59 "Hg (27.95 "Hg at 501m altitude)

Humidity: 74%

Dew point: 73 °F

Location of RawalpindiLocation

Historic Weather in Rawalpindi — Graph

°F

Rawalpindi temperature yesterday

Maximum temperature yesterday: 93 °F (at 12:00 PM)
Minimum temperature yesterday: 77 °F (at 5:00 AM)
Average temperature yesterday: 87 °F

Past Weeks' High & Low Weather Summary

 TemperatureHumidityPressure
High95 °F (Jul 25, 1:00 PM)100% (Jul 21, 9:00 AM)30.01 "Hg (Jul 21, 9:00 AM)
Low68 °F (Jul 23, 1:00 PM)47% (Jul 27, 3:00 PM)29.50 "Hg (Jul 29, 4:00 PM)
Average84 °F74%29.65 "Hg
* Reported Jul 21 5:00 AM — Aug 5 5:00 AM, Rawalpindi, Weather by CustomWeather, © 2015

Note: Actual official high and low records may vary slightly from our data, if they occured in-between our weather recording intervals... More about our weather records

Advertising

Rawalpindi weather history for previous 24 hours

 ConditionsComfort  
Time TempWeatherWind HumidityBarometerVisibility
5:00 AM
Wed, Aug 5
82 °FPassing clouds.5 mph74%29.59 "Hg3 mi
4:00 AM82 °FPassing clouds.5 mph74%29.59 "Hg3 mi
3:00 AM82 °FPassing clouds.5 mph74%29.59 "Hg3 mi
2:00 AM82 °FPassing clouds.7 mph74%29.59 "Hg3 mi
1:00 AM84 °FPassing clouds.5 mph70%29.59 "Hg3 mi
12:00 AM84 °FHaze.5 mph74%29.59 "Hg3 mi
11:00 PM
Tue, Aug 4
86 °FPassing clouds.5 mph70%29.59 "Hg3 mi
10:00 PM88 °FPassing clouds.5 mph66%29.62 "Hg3 mi
9:00 PM88 °FPassing clouds.5 mph66%29.62 "Hg3 mi
8:00 PM90 °FPassing clouds.7 mph67%29.59 "Hg2 mi
7:00 PM90 °FScattered clouds.7 mph67%29.59 "Hg2 mi
6:00 PM91 °FScattered clouds.14 mph63%29.59 "Hg2 mi
5:00 PM93 °FScattered clouds.14 mph56%29.56 "Hg2 mi
4:00 PM93 °FScattered clouds.14 mph56%29.59 "Hg2 mi
3:00 PM93 °FScattered clouds.14 mph56%29.59 "Hg2 mi
2:00 PM93 °FScattered clouds.9 mph56%29.62 "Hg2 mi
1:30 PM93 °FScattered clouds.9 mph59%29.65 "Hg2 mi
12:30 PM93 °FScattered clouds.9 mph59%29.68 "Hg2 mi
12:00 PM93 °FScattered clouds.9 mph59%29.68 "Hg2 mi
11:30 AM91 °FScattered clouds.7 mph63%29.68 "Hg2 mi
11:00 AM91 °FScattered clouds.7 mph63%29.68 "Hg2 mi
10:30 AM90 °FHaze.7 mph63%29.68 "Hg2 mi
10:00 AM90 °FHaze.7 mph63%29.68 "Hg2 mi
9:30 AM88 °FHaze.5 mph62%29.68 "Hg3 mi
9:00 AM88 °FHaze.5 mph62%29.68 "Hg3 mi
8:30 AM84 °FScattered clouds.5 mph74%29.68 "Hg3 mi
8:00 AM84 °FScattered clouds.5 mph74%29.68 "Hg3 mi
Weather by CustomWeather, © 2015

See weather overviewHow to use our weather pages